Russellville, AR

6:09 AM CDT on October 14, 2019 (GMT -0500)
Russellville Regional

Weather History for KRUE - August, 2019

Change the Weather History Date:

Friday, August 9, 2019

  Actual Average (KHOT) Record (KHOT)
Temperature  
Mean Temperature 82 °F -  
Max Temperature 89 °F 92 °F 105 °F (1956)
Min Temperature 75 °F 69 °F 52 °F (1990)
Cooling Degree Days 17    
Growing Degree Days 32 (Base 50)    
Moisture  
Dew Point 74 °F    
Average Humidity 84    
Maximum Humidity 94    
Minimum Humidity 59    
Precipitation  
Precipitation 0.10 in - - ()
Sea Level Pressure  
Sea Level Pressure 29.92 in    
Wind  
Wind Speed 2 mph (WNW)    
Max Wind Speed 7 mph    
Max Gust Speed -    
Visibility 10 miles    
Events Rain , Thunderstorm    
Averages and records for this station are not official NWS values.
T = Trace of Precipitation, MM = Missing Value Source: NWS Daily Summary

Daily Weather History Graph

Daily Weather History Graph

Search for Another Location

Airport or City:

Astronomy

Aug. 09, 2019 Rise Set
Actual Time 6:27 AM CDT 8:08 PM CDT
Civil Twilight 5:59 AM CDT 8:35 PM CDT
Nautical Twilight 5:26 AM CDT 9:08 PM CDT
Astronomical Twilight 4:52 AM CDT 9:42 PM CDT
Moon 3:47 PM CDT (8/9) 1:26 AM CDT (8/9)
Length of Visible Light 14h 35m
Length of Day
13h 40m
Waxing Gibbous, 70% of the Moon is Illuminated
Aug 9
Waxing Gibbous
Aug 15
Full
Aug 23
Last Quarter
Aug 30
New
Sep 5
First Quarter

Hourly Weather History & Observations

Time (CDT) Temp. Heat Index Dew Point Humidity Pressure Visibility Wind Dir Wind Speed Gust Speed Precip Events Conditions
12:53 AM 78.1 °F - 72.0 °F 81% 29.90 in 10.0 mi Calm Calm - N/A   Partly Cloudy
1:53 AM 77.0 °F - 73.0 °F 88% 29.90 in 10.0 mi East 5.8 mph - N/A   Partly Cloudy
2:53 AM 75.9 °F - 73.9 °F 94% 29.89 in 8.0 mi Calm Calm - 0.01 in Rain Light Rain
3:53 AM 75.9 °F - 73.9 °F 94% 29.88 in 10.0 mi Calm Calm - 0.00 in   Mostly Cloudy
4:53 AM 75.9 °F - 73.9 °F 94% 29.90 in 9.0 mi North 6.9 mph - 0.08 in Rain Light Rain
5:00 AM 75.9 °F - 73.0 °F 91% 29.92 in 9.0 mi North 5.8 mph - 0.01 in Rain , Thunderstorm Light Rain
5:09 AM 75.9 °F - 73.9 °F 94% 29.92 in 10.0 mi Calm Calm - 0.01 in Rain Light Rain
5:53 AM 75.0 °F - 73.0 °F 94% 29.89 in 7.0 mi Calm Calm - 0.01 in   Mostly Cloudy
6:53 AM 75.9 °F - 73.9 °F 94% 29.91 in 7.0 mi Calm Calm - N/A   Scattered Clouds
7:19 AM 75.9 °F - 73.9 °F 94% 29.94 in 7.0 mi Calm Calm - N/A   Mostly Cloudy
7:30 AM 75.9 °F - 73.9 °F 94% 29.94 in 9.0 mi Calm Calm - N/A   Mostly Cloudy
7:45 AM 75.9 °F - 73.9 °F 94% 29.95 in 10.0 mi Calm Calm - N/A   Overcast
7:53 AM 75.9 °F - 73.0 °F 91% 29.92 in 10.0 mi Calm Calm - N/A   Overcast
8:42 AM 77.0 °F - 73.9 °F 90% 29.96 in 10.0 mi Variable 3.5 mph - N/A   Overcast
8:53 AM 77.0 °F - 73.9 °F 90% 29.94 in 10.0 mi Calm Calm - N/A   Overcast
9:10 AM 78.1 °F - 73.9 °F 87% 29.97 in 10.0 mi Calm Calm - N/A   Overcast
9:53 AM 80.1 °F 84.5 °F 73.9 °F 81% 29.94 in 10.0 mi Calm Calm - N/A   Partly Cloudy
10:53 AM 82.0 °F 88.6 °F 75.0 °F 79% 29.95 in 10.0 mi NW 4.6 mph - N/A   Scattered Clouds
11:53 AM 82.9 °F 90.2 °F 75.0 °F 77% 29.96 in 10.0 mi Calm Calm - N/A   Mostly Cloudy
12:53 PM 84.0 °F 91.9 °F 75.0 °F 74% 29.95 in 10.0 mi West 5.8 mph - N/A   Partly Cloudy
1:53 PM 84.9 °F 94.1 °F 75.9 °F 74% 29.93 in 10.0 mi SSW 4.6 mph - N/A   Partly Cloudy
2:53 PM 87.1 °F 95.4 °F 73.9 °F 65% 29.92 in 10.0 mi WSW 6.9 mph - N/A   Overcast
3:53 PM 89.1 °F 97.0 °F 73.0 °F 59% 29.87 in 10.0 mi Variable 5.8 mph - N/A   Clear
4:53 PM 89.1 °F 98.0 °F 73.9 °F 61% 29.86 in 10.0 mi WNW 4.6 mph - N/A   Clear
5:53 PM 87.1 °F 94.5 °F 73.0 °F 63% 29.88 in 10.0 mi West 5.8 mph - N/A   Partly Cloudy
6:53 PM 84.9 °F 93.3 °F 75.0 °F 72% 29.88 in 10.0 mi SW 3.5 mph - N/A   Clear
7:53 PM 82.9 °F 90.8 °F 75.9 °F 79% 29.88 in 10.0 mi Calm Calm - N/A   Partly Cloudy
8:53 PM 81.0 °F 87.9 °F 77.0 °F 88% 29.89 in 10.0 mi Calm Calm - N/A   Partly Cloudy
9:53 PM 81.0 °F 87.9 °F 77.0 °F 88% 29.92 in 10.0 mi Calm Calm - N/A   Overcast
10:53 PM 80.1 °F 85.8 °F 77.0 °F 90% 29.91 in 10.0 mi Calm Calm - N/A   Mostly Cloudy
11:53 PM 81.0 °F 87.3 °F 75.9 °F 85% 29.92 in 10.0 mi Calm Calm - N/A   Overcast